TimeCST,TemperatureF,Dew PointF,Humidity,Sea Level PressureIn,VisibilityMPH,Wind Direction,Wind SpeedMPH,Gust SpeedMPH,PrecipitationIn,Events,Conditions,WindDirDegrees,DateUTC
12:54 AM,14.0,5.0,67,30.01,10.0,NW,11.5,-,N/A,,Clear,320,2013-02-15 06:54:00
1:54 AM,12.9,3.9,67,30.03,10.0,NW,11.5,-,N/A,,Mostly Cloudy,320,2013-02-15 07:54:00
2:54 AM,10.9,3.0,70,30.04,10.0,NW,6.9,-,N/A,,Clear,320,2013-02-15 08:54:00
3:54 AM,7.0,1.9,80,30.05,10.0,NW,4.6,-,N/A,,Clear,320,2013-02-15 09:54:00
4:42 AM,8.6,3.2,79,30.00,10.0,WNW,5.8,-,N/A,,Mostly Cloudy,300,2013-02-15 10:42:00
4:54 AM,5.0,1.9,87,30.07,10.0,NNW,4.6,-,N/A,,Overcast,330,2013-02-15 10:54:00
6:22 AM,3.2,1.4,92,30.01,10.0,Calm,Calm,-,N/A,,Scattered Clouds,0,2013-02-15 12:22:00
6:54 AM,3.0,-0.9,84,30.09,10.0,Calm,Calm,-,N/A,,Mostly Cloudy,0,2013-02-15 12:54:00
7:54 AM,5.0,1.9,87,30.11,10.0,Calm,Calm,-,N/A,,Overcast,0,2013-02-15 13:54:00
8:54 AM,12.9,6.1,74,30.12,10.0,NW,6.9,-,N/A,,Overcast,310,2013-02-15 14:54:00
9:13 AM,12.2,6.8,79,30.05,10.0,NW,6.9,-,N/A,,Overcast,310,2013-02-15 15:13:00
9:47 AM,15.8,6.8,68,30.05,10.0,NW,5.8,-,N/A,,Mostly Cloudy,320,2013-02-15 15:47:00
9:54 AM,15.1,7.0,70,30.12,10.0,NNW,4.6,-,N/A,,Mostly Cloudy,330,2013-02-15 15:54:00
10:54 AM,19.0,6.1,57,30.11,10.0,North,10.4,16.1,N/A,,Mostly Cloudy,350,2013-02-15 16:54:00
11:15 AM,17.6,3.2,53,30.04,10.0,NW,10.4,-,N/A,,Overcast,310,2013-02-15 17:15:00
11:54 AM,19.0,5.0,54,30.11,10.0,North,9.2,-,0.00,,Overcast,350,2013-02-15 17:54:00
12:54 PM,19.9,6.1,55,30.09,10.0,NW,6.9,-,0.00,,Overcast,320,2013-02-15 18:54:00
1:54 PM,19.0,9.0,65,30.09,8.0,NW,11.5,-,0.00,,Overcast,310,2013-02-15 19:54:00
2:54 PM,18.0,10.0,71,30.11,9.0,NNW,11.5,20.7,0.00,,Overcast,340,2013-02-15 20:54:00
3:54 PM,18.0,6.1,60,30.13,10.0,WNW,10.4,-,0.00,,Overcast,300,2013-02-15 21:54:00
4:54 PM,15.1,3.9,61,30.16,10.0,WNW,9.2,-,N/A,,Overcast,300,2013-02-15 22:54:00
5:46 PM,12.2,5.0,73,30.09,10.0,NNW,11.5,-,N/A,,Overcast,340,2013-02-15 23:46:00
5:54 PM,12.9,5.0,71,30.18,10.0,NNW,10.4,-,N/A,,Overcast,330,2013-02-15 23:54:00
6:54 PM,8.1,1.0,73,30.19,10.0,NW,5.8,-,N/A,,Mostly Cloudy,320,2013-02-16 00:54:00
7:54 PM,6.1,1.0,80,30.20,10.0,Calm,Calm,-,N/A,,Overcast,0,2013-02-16 01:54:00
8:54 PM,3.0,-0.9,84,30.19,10.0,Calm,Calm,-,N/A,,Clear,0,2013-02-16 02:54:00
9:54 PM,-0.9,-4.0,87,30.18,10.0,Calm,Calm,-,N/A,,Partly Cloudy,0,2013-02-16 03:54:00
10:54 PM,-0.9,-6.0,79,30.17,10.0,Calm,Calm,-,N/A,,Overcast,0,2013-02-16 04:54:00
11:54 PM,-0.0,-4.0,83,30.15,10.0,Calm,Calm,-,N/A,,Overcast,0,2013-02-16 05:54:00